BEIDOU-3 M25 (C47)

Last updated on Mon Jun 22 2026 00:03:31 GMT+0000 (Coordinated Universal Time)

1 61186U 24168B 26172.26538248 -.00000098 00000+0 00000+0 0 9995 2 61186 54.4693 302.1001 0003033 300.4472 91.7533 1.86230113 11860
UTC large
Height (km)
Speed (km/s)
/
Latitude / Longitude
Inclination (degrees)
Orbital Period (minutes)
Azimuth
Elevation
Range (km)
Doppler Factor

Next 0 passes for location: London (51.5072 / 0.1276)

No passes found over London.
BEIDOU-3 M25 (C47)